Location: Tucson
(32.2217°N, 110.9265°W)
Time: 07:50:25
(UTC-07:00)

Altair - Visible Passes

Search period start: 25 October 2021 00:00
Search period end: 04 November 2021 00:00
Orbit: 1502 x 1682 km, 47.2° (Epoch: 24 October)

Date Brightness Start Highest point End Pass type
(mag) Time Alt. Az. Time Alt. Az. Time Alt. Az.
25 Oct 8.1 03:20:25 45° NNE 03:20:25 45° NNE 03:27:24 10° NE visible
25 Oct 8.5 05:18:26 17° WNW 05:24:42 33° N 05:33:16 10° ENE visible
26 Oct 8.4 02:56:42 37° NNE 02:56:42 37° NNE 03:02:11 10° NE visible
26 Oct 8.4 04:54:43 22° NW 04:59:20 33° N 05:07:53 10° NE visible
27 Oct 8.9 02:32:58 28° NE 02:32:58 28° NE 02:36:58 10° NE visible
27 Oct 8.3 04:31:00 28° NW 04:33:58 33° N 04:42:30 10° NE visible
28 Oct 9.2 02:09:14 21° NE 02:09:14 21° NE 02:11:45 10° NE visible
28 Oct 8.3 04:07:15 33° NNW 04:08:36 34° N 04:17:09 10° NE visible
28 Oct 8.5 06:07:03 10° NW 06:15:47 38° NNE 06:24:48 10° E visible
29 Oct 9.6 01:45:28 14° NE 01:45:28 14° NE 01:46:33 10° NE visible
29 Oct 8.3 03:43:30 35° N 03:43:30 35° N 03:51:50 10° NE visible
29 Oct 8.5 05:41:48 10° NW 05:50:26 37° NNE 05:59:20 10° E visible
30 Oct 8.5 03:19:44 33° N 03:19:44 33° N 03:26:31 10° NE visible
30 Oct 8.5 05:17:45 14° NW 05:25:05 35° NNE 05:33:52 10° ENE visible
31 Oct 8.7 02:55:59 29° NNE 02:55:59 29° NNE 03:01:13 10° NE visible
31 Oct 8.5 04:54:00 19° NW 04:59:43 34° N 05:08:24 10° ENE visible
01 Nov 9.0 02:32:13 23° NNE 02:32:13 23° NNE 02:35:57 10° NE visible
01 Nov 8.5 04:30:15 25° NNW 04:34:21 34° N 04:42:56 10° ENE visible
02 Nov 9.4 02:08:29 18° NE 02:08:29 18° NE 02:10:40 10° NE visible
02 Nov 8.4 04:06:30 29° NNW 04:09:00 33° N 04:17:29 10° ENE visible
02 Nov 8.0 06:06:05 10° NW 06:15:30 60° NNE 06:25:16 10° ESE visible
03 Nov 9.7 01:44:46 12° NE 01:44:46 12° NE 01:45:26 10° NE visible
03 Nov 8.4 03:42:47 32° N 03:43:38 32° N 03:52:02 10° ENE visible
03 Nov 8.0 05:40:55 10° NW 05:50:14 56° NNE 05:59:54 10° ESE visible
